Regional Weather Roundup
Issued by NWS

Home | Current Version | Previous Version | Text Only | Print | Product List | Glossary On
Versions: 1 2 3 4 5 6 7 8 9 10 11 12 13 14 15 16 17 18 19 20 21 22 23 24 25 26 27 28 29 30 31 32 33 34 35 36 37 38 39 40 41 42 43 44 45 46 47 48 49 50
000
ASUS43 KMPX 212301
RWRMN
WEATHER ROUNDUP FOR MINNESOTA
NATIONAL WEATHER SERVICE TWIN CITIES/CHANHASSEN MN
600 PM CDT THU AUG 21 2014


NOTE: "FAIR" INDICATES FEW OR NO CLOUDS BELOW 12,000 FEET WITH NO
SIGNIFICANT WEATHER AND/OR OBSTRUCTIONS TO VISIBILITY. N/A MEANS
CURRENT SKY AND/OR WEATHER CONDITIONS ARE NOT AVAILABLE.

MNZ060>063-068>070-220000-
   Twin Cities Metro

CITY           SKY/WX    TMP DP  RH WIND       PRES   REMARKS
TWIN CITIES    MOSUNNY   83  73  72 NE7       29.79S
ST PAUL        MOSUNNY   81  73  76 SE5       29.79F
CRYSTAL        MOSUNNY   82  72  71 NE7       29.79R
BLAINE         PTSUNNY   79  75  89 E8        29.81S
LAKEVILLE      MOSUNNY   82  73  74 S7        29.80S
EDEN PRAIRIE   CLOUDY    85  73  67 CALM      29.78S HX  91
SOUTH ST PAUL  PTSUNNY   82  73  73 CALM      29.79F
LAKE ELMO      FAIR      81  73  78 E7        29.82S
$$
MNZ001>005-007-008-013>017-022>024-027-028-220000-
   Northwest Minnesota

CITY           SKY/WX    TMP DP  RH WIND       PRES   REMARKS
BEMIDJI        CLOUDY    73  66  79 E6        29.86S
HALLOCK        SUNNY     73  66  78 E10       29.83R
ROSEAU         MOSUNNY   72  64  78 E7        29.86R
WARROAD        MOSUNNY   68  64  88 E10       29.87S
THIEF RVR FALL CLOUDY    75  66  73 SE6       29.84R
CROOKSTON      PTSUNNY   77  68  73 CALM      29.82S
FOSSTON        PTSUNNY   73  64  73 SE7       29.86R
DETROIT LAKES  CLOUDY    72  68  88 SE7       29.86R
MOORHEAD       PTSUNNY   75  73  94 CALM      29.83R
PARK RAPIDS    CLOUDY    72  67  84 S6        29.86R
MAHNOMEN       CLOUDY    72  67  87 SE6       29.84R
$$
MNZ006-009>011-018-025>026-220000-
   North Central Minnesota

CITY           SKY/WX    TMP DP  RH WIND       PRES   REMARKS
BAUDETTE       CLOUDY    69  64  84 E9        29.87S
FLAG ISLAND    CLOUDY    66  63  88 E7        29.88R
INTL FALLS     CLOUDY    68  62  81 E12       29.90R
WASKISH        CLOUDY    73  66  78 CALM      29.87R
BIG FORK       PTSUNNY   72  64  78 SE6       29.89R
LONGVILLE      CLOUDY    70  66  88 CALM      29.88R
GRAND RAPIDS   CLOUDY    70  63  78 SE6       29.89R
CRANE LAKE     CLOUDY    63  61  94 CALM      29.93S
ORR            CLOUDY    66  59  77 CALM      29.89R
COOK           CLOUDY    66  61  82 E3        29.91R
WALKER         CLOUDY    69  65  87 E6        29.87R
$$
MNZ012-019>021-037-220000-
   Northeast Minnesota

CITY           SKY/WX    TMP DP  RH WIND       PRES   REMARKS
DULUTH         CLOUDY    65  60  84 E9        29.90R
ELY            CLOUDY    64  57  77 E3        29.94R
HIBBING        CLOUDY    72  62  71 SE9       29.90R
EVELETH        CLOUDY    70  61  73 E7        29.92R
DULUTH HARBOR  CLOUDY    63  61  94 NE17      29.90R
TWO HARBORS    CLOUDY    63  57  82 NE7       29.89S
SILVER BAY     MOSUNNY   61  61 100 NE10      29.92R
GRAND MARAIS     N/A     63  60  90 NE7       29.93R
G MARAIS ARPRT PTSUNNY   63  55  77 NE7       29.98R
$$
MNZ029>031-032-039>041-046>048-054>057-064-220000-
   West Central Minnesota

CITY           SKY/WX    TMP DP  RH WIND       PRES   REMARKS
FERGUS FALLS   CLOUDY    75  66  73 E6        29.82R
WHEATON        SUNNY     79  68  69 NW3       29.83S
MORRIS         MOSUNNY   82  70  65 N5        29.82R
ALEXANDRIA     CLOUDY    73  69  87 E6        29.86R
ELBOW LAKE     CLOUDY    77  71  81 E7        29.83S
WADENA         CLOUDY    70  68  94 SE7       29.85S FOG
GLENWOOD       SUNNY     75  70  83 NE6       29.85S
APPLETON       MOSUNNY   82  70  65 N8        29.81R
BENSON         PTSUNNY   81  72  74 NE3       29.82R
ORTONVILLE     PTSUNNY   81  70  69 N6        29.82R
MADISON        SUNNY     84  72  65 NW10      29.82R
WILLMAR        FAIR      81  72  74 NE6       29.83R
$$
MNZ033>034-036-042>043-049>051-058-059-220000-
   Central Minnesota

CITY           SKY/WX    TMP DP  RH WIND       PRES   REMARKS
ST CLOUD       CLOUDY    78  71  79 E5        29.82R
SAUK CENTRE    CLOUDY    73  69  89 NE5       29.84S
PAYNESVILLE    PTSUNNY   76  70  82 CALM      29.83S
AITKIN         CLOUDY    70  64  83 E3        29.86R
PINE RIVER     CLOUDY    68  66  94 E7        29.91R FOG
BRAINERD       CLOUDY    70  66  87 E3        29.86R
STAPLES        CLOUDY    70  66  88 CALM      29.86S
LONG PRAIRIE   CLOUDY    70  68  94 CALM      29.86R
LITTLE FALLS   CLOUDY    70  68  94 CALM      29.84S
LITCHFIELD     PTSUNNY   81  75  83 NE6       29.83S
BUFFALO        PTSUNNY   78  71  79 NE5       29.82S
MAPLE LAKE     MOSUNNY   79  74  84 NE6       29.83S
$$
MNZ037-044-045-052-053-220000-
   East Central Minnesota

CITY           SKY/WX    TMP DP  RH WIND       PRES   REMARKS
PRINCETON      PTSUNNY   77  72  83 E6        29.83S
MORA           PTSUNNY   70  68  94 CALM      29.86S
CAMBRIDGE      MOSUNNY   77  66  69 E3        29.81S
RUSH CITY      CLOUDY    74  70  86 CALM      29.84S
MOOSE LAKE     CLOUDY    64  61  88 NE6       29.86S
HINCKLEY       CLOUDY    72  72 100 E5        29.85S FOG
CLOQUET        CLOUDY    64  61  88 E7        29.90R
MCGREGOR       CLOUDY    68  63  83 E6        29.88S
$$
MNZ071>073-080-081-089-090-097-098-220000-
   Southwest Minnesota

CITY           SKY/WX    TMP DP  RH WIND       PRES   REMARKS
MONTEVIDEO     PTSUNNY   82  73  74 NE5       29.82R
GRANITE FALLS  PTSUNNY   84  74  71 N8        29.82S HX  91
CANBY          MOSUNNY   85  69  58 NW14      29.84R
MARSHALL       MOSUNNY   84  72  65 N9        29.81R
REDWOOD FALLS  MOSUNNY   84  73  69 N7        29.81R HX  90
OLIVIA         CLOUDY    82  72  69 N5        29.81S
PIPESTONE      SUNNY     84  66  54 NW9       29.86R
WINDOM         CLOUDY    82  73  74 NE8       29.82R
WORTHINGTON    MOSUNNY   88  27  11 W9        29.85R
JACKSON        MOSUNNY   86  72  62 SW10      29.84R HX  92
TRACY          PTSUNNY   84  76  77 N8        29.83R HX  93
SLAYTON        SUNNY     87  71  60 CALM      29.85R HX  92
$$
MNZ065>067-074>077-082>085-091>093-220000-
   South Central Minnesota

CITY           SKY/WX    TMP DP  RH WIND       PRES   REMARKS
MANKATO        PTSUNNY   84  72  65 SW6       29.80R
NEW ULM        MOSUNNY   84  79  84 N5        29.79R HX  96
ST JAMES       RAIN      84  73  70 CALM      29.81R HX  91
FAIRMONT       PTSUNNY   86  72  62 MISG      29.82S HX  92
GLENCOE        PTSUNNY   82  73  76 NE5       29.80R
FARIBAULT      MOSUNNY   88  70  55 CALM      29.81S HX  92
OWATONNA       MOSUNNY   84  73  70 S9        29.82S HX  91
WASECA         PTSUNNY   81  66  61 SW8       29.83S
ALBERT LEA     MOSUNNY   84  70  61 SW8       29.84R
$$
MNZ078>079-086>088-094>096-220000-
   Southeast Minnesota

CITY           SKY/WX    TMP DP  RH WIND       PRES   REMARKS
ROCHESTER      CLOUDY    82  73  74 S9        29.86R
RED WING       PTSUNNY   84  73  70 SE6       29.79S HX  91
STANTON        PTSUNNY   85  73  67 SW5       29.79R HX  91
DODGE CENTER   PTSUNNY   82  75  78 S7        29.85R
WINONA         SUNNY     81  70  69 CALM      29.84S
AUSTIN         MOSUNNY   84  72  65 SW9       29.84S
PRESTON        MOSUNNY   81  76  87 S12       29.88R
$$
ABBREVIATIONS USED IN REMARKS
   TC - TEMPERATURES IN CELSIUS
  WCI - WIND CHILL INDEX
   HX - HEAT INDEX
  VSB - VISIBILITY
$$


USA.gov is the U.S. government's official web portal to all federal, state and local government web resources and services.